SCP
-0 -0 0 0 0 0 0 0 0 0 0 0 0 0 0 0 0 0 0 0 0 0 0 0 0 0 0 0 0 0 0 0
0 0 0 0 0 0 0 0 0 0 0 0 0 0 0 0 0 0 0 0 0 0 0 0 0 0 0 0 0 0 0 0
0 0 -0 -0 -0 0 0 0 0 0 0 0 0 0 0 0 0 0 0 0 0 0 0 0 0 0 0 0 0 0 0 0
0 0 0 0 0 0 0 0 0 0 0 0 0 0 0 0 0 0 0 0 0 0 0 0 0 0 0 0 0 0 0 0
0 0 0 0 -0 -0 -0 0 0 0 0 0 0 0 0 0 0 0 0 0 0 0 0 0 0 0 0 0 0 0 0 0
0 0 0 0 0 0 0 0 0 0 0 0 0 0 0 0 0 0 0 0 0 0 0 0 0 0 0 0 0 0 0 0
0 0 0 0 0 0 0 0 -0 0 0 0 0 0 0 0 0 0 0 0 0 0 0 0 0 0 0 0 0 0 0 0
0 0 0 0 0 0 0 0 0 0 0 0 0 0 0 0 0 0 0 0 0 0 0 0 0 0 0 0 0 0 0 0
0 0 0 0 0 0 0 0 0 0 0 0 0 0 0 0 0 0 0 0 0 0 0 0 0 0 0 0 0 0 0 0
0 0 0 0 0 0 0 0 0 0 0 0 0 0 0 0 0 0 0 0 0 0 0 0 0 0 0 0 0 0 0 0
0 0 0 0 0 0 0 0 0 0 0 0 0 0 0 0 0 0 0 0 0 0 0 0 0 0 0 0 0 0 0 0
-0 -0 -0 -0 -0 0 0 0 0 0 0 0 0 0 0 0 0 0 0 0 0 0 0 0 0 0 0 0 0 0 0 0
-0 -0 -0 -0 -0 -0 -0 -0 -0 0 0 0 0 0 0 0 0 0 0 0 0 0 0 0 0 0 0 0 0 0 0 0
-0 -0 -0 -0 -0 -0 -0 -0 -0 -0 -0 -0 0 0 0 0 0 0 0 0 0 0 0 0 0 0 0 0 0 0 0 0
-0 -0 -0 0 -0 0 -0 -0 -0 -0 -0 -0 -0 0 0 0 0 0 0 0 0 0 0 0 0 0 0 0 0 0 0 0
-0 -0 -0 -0 -0 -0 -0 -0 0 0 0 0 0 0 0 0 0 0 0 0 0 0 0 0 0 0 0 0 0 0 0 0
-0 -0 -0 -0 -0 -0 -0 -0 -0 0 0 0 0 0 0 0 0 0 0 0 0 0 0 0 0 0 0 0 0 0 0 0
0 -0 -0 -0 -0 0 -0 -0 -0 0 0 0 0 0 0 0 0 0 0 0 0 0 0 0 0 0 0 0 0 0 0 0
0 0 0 0 0 0 0 0 0 0 0 0 0 0 0 0 0 0 0 0 0 0 0 0 0 0 0 0 0 0 0 0
0 0 0 0 0 0 0 0 0 0 0 0 0 0 0 0 0 0 0 0 0 0 0 0 0 0 0 0 0 0 0 0
Wind_Speed_500mb
37 25 21 19 21 32 41 45 56 64 71 79 83 81 83 86 86 82 81 83 80 79 84 89 89 86 81 73 68 62 55 49
27 19 17 19 24 26 35 44 53 64 75 84 86 88 91 91 91 87 84 85 83 80 79 86 92 90 86 80 75 68 60 54
52 29 24 37 54 64 57 61 68 76 80 89 93 100 101 99 97 96 91 89 84 82 81 85 92 94 92 86 82 75 68 60
54 58 65 62 70 73 82 86 80 88 98 98 100 103 105 106 106 106 102 97 94 87 86 89 94 99 95 89 85 80 72 62
54 55 59 60 63 67 74 93 105 98 101 100 96 98 108 109 110 111 113 110 105 96 91 91 94 96 96 94 90 85 74 64
68 66 69 67 66 65 73 80 88 92 95 102 97 101 108 107 105 107 106 111 108 99 95 94 94 97 99 100 94 88 77 68
69 78 81 80 79 80 79 83 89 96 98 98 107 112 107 111 105 104 106 107 102 100 96 98 97 97 101 100 95 87 77 70
63 69 80 86 87 92 91 88 81 84 92 81 86 108 110 103 104 102 106 100 96 94 97 101 97 98 102 105 97 87 77 72
53 75 81 80 85 91 90 88 91 71 67 72 80 88 98 95 99 100 98 92 91 92 91 96 97 99 105 108 98 89 81 74
71 72 83 84 83 86 93 85 85 87 73 69 63 69 84 87 88 88 90 90 92 91 88 91 93 98 106 104 97 89 79 72
70 75 83 80 82 82 80 88 75 78 89 83 66 60 64 68 74 81 85 86 83 88 84 89 92 98 107 109 93 88 81 70
78 82 82 86 83 87 83 84 88 77 75 84 82 67 55 53 60 70 79 80 79 82 85 91 88 94 103 105 96 90 78 72
81 87 91 92 89 87 89 86 85 83 81 68 76 75 63 52 50 59 69 75 75 80 85 91 89 94 103 104 95 88 82 76
91 101 102 102 99 103 97 90 81 83 79 73 59 65 70 62 55 57 67 73 73 78 83 90 86 90 98 92 86 86 79 71
94 102 112 109 115 108 105 99 88 90 91 77 68 66 66 67 65 58 64 69 74 81 86 88 86 91 94 76 65 66 72 64
104 111 120 118 117 117 111 103 102 94 90 90 77 66 69 78 76 75 73 69 72 84 84 88 93 100 102 101 90 78 64 66
103 113 127 124 122 119 113 106 99 93 88 82 81 75 69 68 79 80 82 80 76 82 81 84 89 92 103 102 94 89 88 68
108 113 121 127 124 115 108 100 96 92 85 74 81 84 78 70 77 74 77 74 70 69 70 76 83 87 100 95 83 92 87 73
106 120 115 114 117 105 94 85 84 82 77 72 69 88 84 80 74 65 69 72 76 57 59 57 59 70 80 79 72 69 69 61
99 103 100 102 106 89 78 74 77 79 80 73 63 79 79 73 73 62 63 64 62 60 55 57 54 72 79 80 93 86 67 64
Wind_Direction_500mb
354 345 316 302 280 268 261 258 260 253 248 244 243 241 240 239 238 237 239 240 238 234 235 234 232 230 229 228 228 230 237 246
350 6 343 335 318 310 308 287 268 262 258 252 247 241 239 239 240 240 241 242 240 236 233 233 232 230 229 228 229 231 237 245
298 306 311 316 307 300 287 280 279 269 263 261 250 245 242 241 241 241 242 243 242 238 233 231 231 231 229 228 229 231 235 241
317 312 321 317 312 310 308 299 282 283 268 261 255 251 249 245 244 244 243 243 242 237 233 231 230 229 227 229 231 233 234 238
355 348 345 338 329 316 302 305 301 289 270 266 261 260 258 251 248 247 246 245 242 239 235 232 231 228 227 227 228 231 233 236
355 353 352 345 334 318 308 302 302 303 284 265 257 260 259 254 253 251 249 248 244 239 234 231 228 226 226 227 228 229 231 235
345 353 352 348 348 343 336 321 308 298 290 290 271 261 261 256 252 251 249 244 241 237 234 232 227 224 225 228 228 228 231 235
342 339 337 338 341 338 338 342 332 298 288 291 285 272 263 256 254 249 246 244 239 235 231 229 227 226 225 227 225 226 230 234
330 326 326 326 327 325 331 336 341 344 313 302 290 282 268 261 253 247 244 244 241 234 232 230 229 226 224 226 225 224 226 229
327 325 319 328 326 319 319 328 334 342 348 331 312 292 274 261 253 248 243 239 234 230 229 230 228 224 224 226 223 222 223 225
330 326 320 326 324 321 315 315 326 335 330 337 333 316 290 271 259 250 243 237 232 231 228 227 227 223 223 225 222 221 219 222
324 323 323 323 321 317 316 313 315 315 318 321 325 326 307 288 266 252 243 238 232 230 230 229 225 221 226 228 221 221 219 222
323 320 323 319 317 317 312 311 310 313 307 302 308 314 316 294 273 258 245 237 233 230 227 227 222 217 221 223 225 220 221 220
319 319 319 318 317 311 310 312 310 307 306 297 285 287 296 295 285 265 248 240 234 231 229 227 219 216 218 219 224 219 216 216
310 310 311 314 312 309 308 308 305 297 292 294 290 279 271 273 271 263 255 250 243 233 229 227 221 214 210 205 203 214 209 208
303 304 306 308 307 305 304 301 300 299 293 289 283 282 276 266 257 257 256 252 247 246 238 231 226 220 217 216 208 215 218 211
297 300 303 302 301 299 299 300 298 295 289 281 283 276 274 268 262 258 254 251 245 241 244 244 241 232 219 215 215 216 219 206
297 297 298 299 296 294 295 294 293 292 288 282 277 275 271 268 259 257 252 253 251 241 242 240 238 228 216 205 194 209 208 208
294 295 297 295 292 295 296 294 289 286 283 280 266 270 270 265 262 257 251 244 241 233 222 220 227 216 194 186 183 183 204 211
297 296 297 296 294 299 299 294 289 287 281 273 271 268 269 268 259 253 247 244 240 230 210 211 193 190 186 181 186 195 211 204
Wind_Speed_850mb
37 25 21 19 21 32 41 45 56 64 71 79 83 81 83 86 86 82 81 83 80 79 84 89 89 86 81 73 68 62 55 49
27 19 17 19 24 26 35 44 53 64 75 84 86 88 91 91 91 87 84 85 83 80 79 86 92 90 86 80 75 68 60 54
52 29 24 37 54 64 57 61 68 76 80 89 93 100 101 99 97 96 91 89 84 82 81 85 92 94 92 86 82 75 68 60
54 58 65 62 70 73 82 86 80 88 98 98 100 103 105 106 106 106 102 97 94 87 86 89 94 99 95 89 85 80 72 62
54 55 59 60 63 67 74 93 105 98 101 100 96 98 108 109 110 111 113 110 105 96 91 91 94 96 96 94 90 85 74 64
68 66 69 67 66 65 73 80 88 92 95 102 97 101 108 107 105 107 106 111 108 99 95 94 94 97 99 100 94 88 77 68
69 78 81 80 79 80 79 83 89 96 98 98 107 112 107 111 105 104 106 107 102 100 96 98 97 97 101 100 95 87 77 70
63 69 80 86 87 92 91 88 81 84 92 81 86 108 110 103 104 102 106 100 96 94 97 101 97 98 102 105 97 87 77 72
53 75 81 80 85 91 90 88 91 71 67 72 80 88 98 95 99 100 98 92 91 92 91 96 97 99 105 108 98 89 81 74
71 72 83 84 83 86 93 85 85 87 73 69 63 69 84 87 88 88 90 90 92 91 88 91 93 98 106 104 97 89 79 72
70 75 83 80 82 82 80 88 75 78 89 83 66 60 64 68 74 81 85 86 83 88 84 89 92 98 107 109 93 88 81 70
78 82 82 86 83 87 83 84 88 77 75 84 82 67 55 53 60 70 79 80 79 82 85 91 88 94 103 105 96 90 78 72
81 87 91 92 89 87 89 86 85 83 81 68 76 75 63 52 50 59 69 75 75 80 85 91 89 94 103 104 95 88 82 76
91 101 102 102 99 103 97 90 81 83 79 73 59 65 70 62 55 57 67 73 73 78 83 90 86 90 98 92 86 86 79 71
94 102 112 109 115 108 105 99 88 90 91 77 68 66 66 67 65 58 64 69 74 81 86 88 86 91 94 76 65 66 72 64
104 111 120 118 117 117 111 103 102 94 90 90 77 66 69 78 76 75 73 69 72 84 84 88 93 100 102 101 90 78 64 66
103 113 127 124 122 119 113 106 99 93 88 82 81 75 69 68 79 80 82 80 76 82 81 84 89 92 103 102 94 89 88 68
108 113 121 127 124 115 108 100 96 92 85 74 81 84 78 70 77 74 77 74 70 69 70 76 83 87 100 95 83 92 87 73
106 120 115 114 117 105 94 85 84 82 77 72 69 88 84 80 74 65 69 72 76 57 59 57 59 70 80 79 72 69 69 61
99 103 100 102 106 89 78 74 77 79 80 73 63 79 79 73 73 62 63 64 62 60 55 57 54 72 79 80 93 86 67 64
Wind_Direction_850mb
354 345 316 302 280 268 261 258 260 253 248 244 243 241 240 239 238 237 239 240 238 234 235 234 232 230 229 228 228 230 237 246
350 6 343 335 318 310 308 287 268 262 258 252 247 241 239 239 240 240 241 242 240 236 233 233 232 230 229 228 229 231 237 245
298 306 311 316 307 300 287 280 279 269 263 261 250 245 242 241 241 241 242 243 242 238 233 231 231 231 229 228 229 231 235 241
317 312 321 317 312 310 308 299 282 283 268 261 255 251 249 245 244 244 243 243 242 237 233 231 230 229 227 229 231 233 234 238
355 348 345 338 329 316 302 305 301 289 270 266 261 260 258 251 248 247 246 245 242 239 235 232 231 228 227 227 228 231 233 236
355 353 352 345 334 318 308 302 302 303 284 265 257 260 259 254 253 251 249 248 244 239 234 231 228 226 226 227 228 229 231 235
345 353 352 348 348 343 336 321 308 298 290 290 271 261 261 256 252 251 249 244 241 237 234 232 227 224 225 228 228 228 231 235
342 339 337 338 341 338 338 342 332 298 288 291 285 272 263 256 254 249 246 244 239 235 231 229 227 226 225 227 225 226 230 234
330 326 326 326 327 325 331 336 341 344 313 302 290 282 268 261 253 247 244 244 241 234 232 230 229 226 224 226 225 224 226 229
327 325 319 328 326 319 319 328 334 342 348 331 312 292 274 261 253 248 243 239 234 230 229 230 228 224 224 226 223 222 223 225
330 326 320 326 324 321 315 315 326 335 330 337 333 316 290 271 259 250 243 237 232 231 228 227 227 223 223 225 222 221 219 222
324 323 323 323 321 317 316 313 315 315 318 321 325 326 307 288 266 252 243 238 232 230 230 229 225 221 226 228 221 221 219 222
323 320 323 319 317 317 312 311 310 313 307 302 308 314 316 294 273 258 245 237 233 230 227 227 222 217 221 223 225 220 221 220
319 319 319 318 317 311 310 312 310 307 306 297 285 287 296 295 285 265 248 240 234 231 229 227 219 216 218 219 224 219 216 216
310 310 311 314 312 309 308 308 305 297 292 294 290 279 271 273 271 263 255 250 243 233 229 227 221 214 210 205 203 214 209 208
303 304 306 308 307 305 304 301 300 299 293 289 283 282 276 266 257 257 256 252 247 246 238 231 226 220 217 216 208 215 218 211
297 300 303 302 301 299 299 300 298 295 289 281 283 276 274 268 262 258 254 251 245 241 244 244 241 232 219 215 215 216 219 206
297 297 298 299 296 294 295 294 293 292 288 282 277 275 271 268 259 257 252 253 251 241 242 240 238 228 216 205 194 209 208 208
294 295 297 295 292 295 296 294 289 286 283 280 266 270 270 265 262 257 251 244 241 233 222 220 227 216 194 186 183 183 204 211
297 296 297 296 294 299 299 294 289 287 281 273 271 268 269 268 259 253 247 244 240 230 210 211 193 190 186 181 186 195 211 204